Location: Bailen
(14.1842°N, 120.7958°E)
Time: 18:36:57
(UTC+00:00)

Cosmos 921 Rocket - Pass Details

Date: 12 January 2026
Orbit: 564 x 620 km, 75.8° (Epoch: 17 February)

Event Time Altitude Azimuth Distance (km) Brightness Sun altitude
Rises 21:57:44 0° 216° (SW) 2,871 6.3 -6.9°
Reaches altitude 10° 22:00:21 10° 231° (SW) 1,960 5.3 -6.3°
Maximum altitude 22:03:49 23° 283° (WNW) 1,299 4.1 -5.5°
Drops below altitude 10° 22:07:15 10° 336° (NNW) 1,936 5.2 -4.7°
Sets 22:09:50 0° 351° (N) 2,828 6.1 -4.1°
